Location: Cerda�ola
(41.4919°N, 2.1403°E)
Time: 19:39:29
(UTC+00:00)

Lacrosse 4 Rocket - Pass Details

Date: 14 August 2020
Orbit: 544 x 615 km, 68.0° (Epoch: 01 October)

Event Time Altitude Azimuth Distance (km) Brightness Sun altitude
Exits shadow 21:33:34 14° 44° (NE) 1,638 3.8 -25.5°
Drops below altitude 10° 21:34:11 10° 41° (NE) 1,876 4.1 -25.6°
Sets 21:36:27 0° 35° (NE) 2,765 5.1 -25.8°
